Temp
10 9 8 8 7 6 6 5 5 5 5 4 4 4 4 4 4 4 5 5 5 6 7 8 8 9 9 10 11 11 11 12 12 13 13 13 14 14 15 16 17 17 18
9 8 7 6 6 5 5 4 4 4 4 4 4 3 3 3 4 4 4 4 4 5 5 6 7 8 9 9 10 11 11 12 12 12 13 13 13 14 14 15 16 17 17
8 7 6 6 5 4 4 4 3 3 3 3 2 3 2 3 3 3 4 3 3 3 4 5 6 7 8 8 9 10 11 11 11 12 13 13 13 13 14 15 15 16 17
7 6 6 5 4 4 3 3 2 2 2 2 2 2 2 2 3 3 3 3 3 3 4 4 5 6 7 8 9 9 10 11 11 12 12 13 13 13 13 14 15 15 16
7 6 5 4 4 3 3 2 2 1 1 1 1 1 1 1 2 2 3 2 2 3 3 3 3 3 4 6 7 8 9 9 9 10 10 11 12 12 13 13 14 14 15
6 5 5 4 3 3 2 2 1 1 1 0 0 0 0 1 1 3 1 1 2 2 2 2 2 2 3 3 5 6 7 7 8 9 9 10 10 11 12 13 13 14 14
5 5 4 3 3 2 1 1 0 0 0 -0 -0 -1 -0 2 2 1 0 0 -0 0 -0 -0 0 1 1 2 2 3 5 6 7 8 8 9 9 10 11 12 13 14 14
5 4 3 3 2 1 1 0 -0 -0 -1 -1 -1 -1 -1 -0 1 0 -1 -0 -1 -1 -0 -0 -0 -1 -0 0 1 2 3 5 6 7 7 8 9 9 10 11 12 13 14
4 3 3 2 1 1 0 -0 -1 -1 -1 -1 -2 -2 -2 -2 -2 -1 -1 -1 -1 -1 -1 -1 -2 -1 -1 -0 -0 0 2 3 4 6 7 8 8 9 9 11 12 13 14
3 3 2 1 1 0 -0 -0 -1 -1 -1 -2 -2 -2 -2 -2 -3 -3 -1 -2 -1 -1 -2 -2 -2 -2 -1 -1 -1 0 1 3 4 5 6 7 8 9 9 10 11 12 13
3 2 2 1 1 0 -0 -1 -1 -1 -2 -2 -2 -3 -3 -3 -3 -3 -3 -2 -2 -2 -2 -2 -2 -2 -2 -1 -1 0 2 2 3 4 5 6 7 8 9 10 11 12 13
2 2 1 0 0 -0 -1 -1 -2 -2 -2 -2 -2 -3 -3 -3 -3 -3 -3 -3 -3 -3 -2 -3 -2 -2 -1 -1 -1 -0 0 1 2 3 4 5 6 8 8 8 10 12 13
2 1 0 -0 -0 -1 -2 -2 -2 -2 -3 -3 -3 -3 -4 -4 -4 -3 -4 -4 -4 -3 -3 -3 -3 -2 -2 -1 -1 -1 -1 0 1 2 4 4 5 6 7 7 9 12 13
1 0 -0 -0 -1 -2 -2 -2 -3 -3 -3 -3 -3 -4 -4 -4 -4 -4 -4 -4 -4 -4 -4 -3 -3 -3 -2 -2 -2 -1 -1 -1 0 2 3 3 4 5 5 6 8 10 12
0 -0 -1 -1 -2 -2 -3 -3 -3 -3 -4 -4 -4 -4 -4 -5 -5 -5 -5 -5 -5 -5 -4 -4 -3 -2 -2 -2 -2 -2 -2 -1 0 1 2 2 4 4 5 6 7 10 12
-0 -1 -1 -2 -2 -3 -3 -3 -4 -4 -4 -4 -5 -5 -5 -5 -5 -6 -6 -5 -5 -5 -5 -4 -3 -3 -2 -2 -2 -2 -2 -1 -0 1 1 2 4 4 5 6 8 10 11
-1 -1 -2 -3 -3 -3 -3 -4 -4 -4 -5 -5 -5 -5 -5 -5 -6 -6 -6 -6 -5 -5 -5 -4 -4 -3 -3 -2 -2 -2 -1 -0 0 1 1 2 3 4 5 6 7 9 11
-2 -2 -3 -3 -3 -4 -4 -4 -4 -5 -5 -5 -5 -5 -5 -5 -6 -6 -6 -6 -5 -5 -5 -4 -4 -3 -3 -2 -2 -1 -0 1 1 0 1 1 3 4 4 5 8 10 11
-2 -3 -3 -4 -4 -4 -4 -4 -5 -5 -4 -4 -5 -5 -5 -5 -6 -6 -5 -5 -5 -5 -5 -4 -3 -3 -3 -2 -1 -1 -0 0 0 -0 0 2 2 3 3 5 6 10 12
-3 -3 -4 -4 -4 -4 -4 -5 -4 -4 -4 -4 -5 -5 -5 -5 -5 -5 -5 -4 -4 -4 -4 -3 -3 -2 -2 -1 -1 -1 -0 -0 -1 -0 0 1 1 2 4 4 7 9 11
-4 -4 -4 -4 -4 -5 -5 -4 -3 -3 -4 -4 -4 -4 -4 -5 -4 -3 -3 -4 -4 -4 -3 -3 -2 -2 -1 -1 -1 -1 -0 -1 -0 0 -0 -1 0 2 2 4 6 8 11
-4 -4 -4 -5 -5 -5 -5 -4 -3 -3 -4 -4 -4 -4 -4 -4 -4 -4 -3 -3 -3 -3 -3 -3 -2 -2 -2 -2 -2 -1 -1 -1 -0 1 -1 -1 1 2 3 3 3 5 8
-5 -5 -5 -5 -5 -5 -5 -4 -3 -4 -4 -4 -4 -4 -4 -4 -4 -4 -4 -4 -3 -3 -3 -3 -3 -3 -3 -2 -2 -2 -1 -1 -1 -1 -1 -0 1 1 3 2 1 5 9
-5 -5 -5 -5 -6 -6 -5 -4 -3 -4 -4 -3 -3 -4 -4 -4 -3 -3 -3 -3 -3 -3 -3 -3 -3 -2 -2 -1 -1 -1 -1 -1 -1 -0 -1 -1 -0 0 2 2 2 9 11
-5 -5 -6 -6 -6 -6 -6 -4 -3 -4 -4 -4 -3 -3 -4 -3 -3 -2 -2 -2 -2 -2 -3 -2 -2 -2 -2 -1 -1 -1 -1 -1 -0 -0 -1 -1 -1 -0 1 3 4 8 12
-6 -6 -6 -6 -6 -5 -5 -4 -3 -4 -4 -4 -4 -4 -3 -2 -2 -1 -1 -2 -2 -2 -2 -2 -2 -2 -2 -1 -1 -1 -1 -1 -1 -0 -0 -2 -0 -1 1 4 1 8 11
Height
820 819 819 818 817 816 814 811 809 807 804 803 801 799 796 794 792 790 788 787 786 783 781 778 775 773 771 769 768 766 764 763 762 760 759 758 757 758 758 759 762 766 768
819 819 818 818 816 815 813 810 809 806 804 802 798 796 794 792 789 787 785 782 780 778 775 773 770 767 765 762 760 758 757 755 754 752 751 750 750 750 751 750 752 756 759
819 818 817 816 814 813 811 809 807 804 801 799 797 794 791 789 787 784 781 778 775 773 770 768 766 763 760 757 754 751 749 747 746 744 743 742 741 741 742 742 742 745 748
818 817 816 815 813 811 810 807 805 802 800 798 795 792 789 787 783 780 777 775 772 769 768 766 763 760 756 753 749 746 742 739 738 735 732 732 733 731 732 732 732 733 736
816 815 814 812 811 810 808 806 804 802 799 796 793 790 787 784 780 777 775 773 770 768 766 763 760 756 752 748 745 741 737 733 731 728 725 723 723 721 721 721 722 722 724
814 813 812 810 809 808 806 804 802 800 798 795 791 787 783 779 776 774 773 771 769 767 764 760 756 752 749 746 742 737 732 728 724 721 718 715 714 712 710 710 710 709 711
812 811 809 808 807 806 805 804 802 799 796 794 788 783 777 774 773 774 773 770 768 765 761 758 754 749 745 742 738 733 728 724 719 714 711 708 706 702 700 699 699 700 699
810 809 807 806 805 804 804 803 802 800 798 796 794 787 776 771 770 772 771 768 765 761 757 754 750 745 740 735 730 726 722 718 712 708 704 701 697 695 691 689 688 687 688
807 807 805 805 804 802 801 801 800 799 797 796 797 798 787 776 768 763 765 762 760 757 753 750 744 740 734 728 723 718 713 709 704 699 695 692 688 686 683 680 677 675 676
806 805 804 803 802 801 800 799 799 798 797 795 795 796 794 789 783 750 753 756 756 753 749 744 739 733 728 722 717 712 705 700 696 691 687 684 680 677 674 671 668 666 662
803 803 802 802 801 800 799 798 797 796 795 794 792 790 789 787 785 781 757 746 747 746 743 739 733 727 722 716 711 705 699 694 688 683 678 675 672 666 665 662 658 655 654
801 800 800 800 799 798 797 795 794 793 792 791 789 787 785 783 779 775 767 756 749 739 736 733 727 722 717 710 705 700 694 688 682 677 672 667 662 658 656 653 650 645 644
797 797 797 796 796 795 795 793 791 790 788 786 784 782 781 778 775 770 764 754 745 736 730 727 723 718 710 705 698 692 685 680 676 671 665 659 654 649 646 644 638 635 634
794 794 794 793 793 792 792 790 788 786 784 782 780 778 776 773 770 767 762 756 742 733 725 719 717 711 705 698 691 685 677 671 666 661 655 650 646 641 637 632 630 627 626
792 791 790 789 789 789 788 786 784 782 780 778 776 773 771 767 765 761 758 754 748 732 718 714 710 705 699 692 684 677 670 662 657 652 646 640 636 632 626 623 618 617 617
788 788 787 786 785 785 785 783 780 778 776 774 772 769 765 762 759 755 751 747 744 736 718 715 705 699 693 686 677 670 662 655 649 643 637 629 622 617 615 611 608 609 609
785 784 783 782 782 781 781 779 777 774 772 770 767 763 760 756 752 749 745 741 736 731 720 707 703 694 686 680 670 662 655 646 639 634 628 620 615 610 605 603 602 602 603
781 780 780 779 778 777 777 774 772 771 768 765 761 759 754 751 747 743 738 733 729 724 718 706 696 687 681 674 666 656 649 641 634 625 616 609 603 603 598 594 594 594 596
778 777 777 776 775 774 772 770 769 767 763 760 757 753 749 745 740 736 732 727 722 717 712 705 692 685 677 671 661 652 644 634 628 619 609 602 593 587 584 586 585 585 585
775 774 774 773 772 770 769 766 765 761 758 755 752 748 744 740 735 729 724 720 715 710 706 699 689 680 674 666 660 650 637 632 621 609 602 596 589 583 577 576 574 574 577
772 771 770 769 769 767 765 763 760 757 753 750 747 743 738 734 730 725 721 716 712 707 701 693 685 678 670 663 657 647 639 628 617 609 598 587 579 576 573 568 566 566 567
769 769 767 767 765 763 762 759 757 753 749 745 741 737 732 727 723 719 715 712 708 702 697 691 683 677 669 663 653 646 638 628 611 602 596 582 573 567 563 561 558 555 556
767 765 765 764 763 760 758 755 752 749 745 740 736 731 726 721 717 712 708 705 701 698 694 688 680 675 667 660 652 641 635 629 619 605 595 580 572 564 555 552 548 546 549
764 764 763 761 759 756 754 751 748 745 741 736 732 727 722 716 711 707 701 696 693 691 687 683 676 670 663 656 651 643 634 625 616 606 596 585 569 559 550 545 539 536 543
762 762 761 759 756 753 751 748 744 740 736 731 727 722 717 712 707 702 696 690 687 684 681 678 673 667 661 654 649 641 633 625 615 606 596 588 566 552 542 535 528 528 535
761 760 759 757 755 751 747 745 741 736 732 727 723 717 713 709 703 697 692 686 681 679 675 670 668 663 658 651 647 643 636 627 620 605 597 588 567 559 545 533 528 526 530
Wind_Speed
16 18 18 17 17 19 20 23 24 25 26 27 30 31 31 32 32 31 31 30 27 29 30 30 31 32 31 31 32 32 33 33 34 35 36 36 36 36 34 39 42 43 44
15 16 16 16 16 18 20 21 22 23 25 28 31 31 32 32 33 32 34 34 31 32 30 30 30 31 32 33 34 34 34 34 34 35 37 39 38 38 38 37 43 46 47
12 14 15 15 16 17 20 21 22 24 28 30 31 32 29 31 32 35 37 34 31 30 30 29 29 30 31 33 34 34 34 35 35 36 38 39 40 40 39 39 42 47 49
10 14 15 15 16 18 19 21 22 26 27 28 29 26 28 32 36 37 32 32 32 31 30 28 27 28 31 31 31 31 33 34 36 38 38 39 41 43 43 42 42 45 51
10 13 14 15 17 18 18 19 22 23 25 26 24 24 28 30 33 30 28 29 24 29 27 26 26 27 28 29 32 34 35 33 33 32 33 38 44 43 42 43 43 43 50
10 13 14 15 17 18 19 20 21 23 24 27 26 23 27 28 27 22 23 22 28 33 32 36 36 34 27 30 31 33 34 34 34 34 33 36 33 39 43 45 43 42 43
9 12 13 15 16 16 18 18 20 22 25 26 22 27 25 10 20 22 22 32 29 36 25 28 32 31 33 29 30 30 32 36 37 37 37 36 37 36 37 42 46 43 48
9 11 12 14 14 15 17 19 19 21 20 23 16 21 5 14 2 27 33 25 28 30 30 33 32 38 34 35 33 34 35 35 37 38 39 40 35 34 34 37 43 45 43
9 10 12 12 13 14 16 17 18 16 20 21 15 8 5 4 22 12 27 23 25 26 26 32 36 33 38 35 36 34 31 32 36 37 39 38 39 34 35 35 37 45 44
8 9 11 10 11 13 15 16 15 16 17 18 18 13 17 24 9 15 9 28 26 26 31 31 33 36 34 36 35 33 30 30 33 34 35 36 38 36 35 39 38 40 44
6 9 9 9 12 14 15 15 17 19 19 20 20 19 19 19 19 14 16 25 36 30 28 30 35 31 36 35 32 29 35 32 32 32 34 36 37 37 35 34 41 39 42
7 8 8 11 13 14 16 17 18 19 19 20 22 22 19 16 16 17 12 16 19 34 31 33 33 31 31 33 33 37 32 34 35 34 34 36 35 37 35 36 39 40 41
7 8 9 12 14 16 16 17 18 19 20 20 20 23 22 21 22 23 23 19 11 31 32 31 25 31 32 36 37 35 35 36 35 35 36 37 36 35 36 36 39 39 39
6 7 9 12 15 15 16 17 18 19 19 21 23 24 26 23 22 21 21 21 14 15 29 31 29 31 33 35 35 38 37 34 33 33 35 39 36 36 37 38 40 36 40
6 9 11 13 15 16 16 17 18 19 20 21 23 22 22 23 24 24 23 23 19 14 15 28 30 30 33 34 37 37 37 36 33 33 36 36 35 34 33 41 37 30 39
6 9 12 13 14 16 16 17 18 19 21 20 19 23 26 25 25 25 24 24 22 21 15 27 32 34 36 36 39 37 37 35 33 32 33 36 36 35 36 36 33 31 34
8 10 11 13 15 16 16 18 19 19 18 22 22 24 25 28 26 26 25 25 25 24 15 30 32 35 37 35 39 38 36 35 32 29 33 34 32 38 33 31 29 33 33
7 9 11 13 14 16 17 18 20 20 21 23 25 27 28 27 27 27 26 26 26 28 26 16 32 34 33 35 35 35 35 29 31 34 37 30 26 30 25 23 30 37 33
7 9 11 13 15 17 19 19 20 20 22 24 27 29 30 28 28 27 27 27 27 27 27 27 30 34 33 32 32 33 35 28 29 32 34 22 33 24 19 20 27 38 36
8 9 11 13 15 18 19 19 19 23 24 24 26 26 28 28 29 30 29 26 23 23 23 25 27 26 27 30 28 28 29 29 34 43 34 32 30 21 16 18 23 30 37
7 9 12 14 16 17 18 18 21 21 21 22 22 26 27 25 27 27 26 23 23 21 23 22 21 24 24 26 24 29 27 32 34 24 26 38 29 22 16 15 22 17 37
8 10 12 15 17 18 18 18 20 20 20 25 27 30 30 27 26 24 26 26 24 25 22 21 21 18 26 26 29 27 25 22 11 31 32 35 29 27 23 20 18 18 26
9 11 14 16 17 19 18 19 19 20 21 25 29 29 29 28 27 31 30 26 26 25 25 27 25 24 26 29 30 29 25 24 23 38 29 23 24 27 31 22 18 17 26
11 13 15 16 18 20 17 17 19 20 23 27 28 29 29 31 30 27 29 29 26 23 26 24 26 29 28 29 27 28 29 27 29 30 20 6 26 28 26 16 13 25 36
12 13 15 18 18 19 17 18 20 21 23 27 29 29 28 29 28 28 30 24 21 21 22 23 24 26 26 27 26 28 23 20 11 23 14 16 15 24 16 20 14 23 42
11 13 15 15 16 18 18 18 20 19 20 24 24 27 24 26 29 30 30 25 20 22 25 28 24 24 25 27 25 24 22 17 14 7 11 17 15 10 5 12 25 8 35
Wind_Direction
36 28 22 15 9 1 360 357 355 354 352 347 342 342 341 338 336 333 329 324 318 316 313 309 306 303 300 297 292 288 284 280 277 273 274 274 273 271 271 253 246 240 235
32 23 16 11 5 0 357 355 354 352 346 343 342 342 340 338 337 331 325 321 318 316 313 312 310 306 303 299 294 288 285 281 276 272 269 269 270 269 266 266 246 241 235
25 17 11 7 3 357 353 353 354 348 345 346 343 341 339 334 329 328 326 323 321 320 318 315 311 307 303 298 293 290 286 282 278 274 270 267 265 265 265 262 258 242 238
15 10 6 4 359 354 354 353 352 347 346 345 340 336 328 327 328 328 324 324 326 327 321 320 315 310 302 299 294 290 286 285 282 278 272 267 264 263 262 260 257 249 239
6 3 3 2 355 351 354 353 348 349 344 340 333 326 323 323 320 318 326 328 329 330 329 322 322 320 317 307 296 288 287 286 284 283 277 270 263 260 261 258 256 254 240
359 355 357 356 351 349 351 352 349 347 342 340 330 321 320 312 313 316 326 327 329 321 320 313 315 319 317 311 300 295 288 288 285 286 284 279 276 266 258 257 258 253 252
344 348 351 350 350 350 350 349 346 344 343 344 336 330 318 333 309 311 322 320 319 320 312 322 321 315 318 308 304 301 295 290 287 282 281 280 281 276 264 256 254 253 245
335 344 345 345 346 345 348 349 347 340 339 342 335 323 335 308 47 319 304 309 310 312 305 317 312 311 311 304 303 296 291 287 283 283 282 276 278 278 276 263 254 256 250
332 335 339 336 339 343 344 343 341 337 329 334 341 331 328 303 317 303 307 303 307 303 305 308 308 305 303 302 301 300 296 289 287 281 278 273 272 279 278 273 263 254 251
316 326 328 330 332 337 336 337 334 329 328 321 322 310 294 294 314 316 323 318 312 305 304 306 303 301 298 300 299 302 302 295 285 281 278 276 276 271 279 272 269 260 251
306 318 326 323 326 331 333 330 325 324 323 316 313 306 301 293 289 288 300 314 311 310 306 307 304 298 300 302 298 304 305 305 297 295 286 281 273 275 278 283 269 262 250
305 316 316 321 325 328 328 324 323 322 321 316 313 310 299 296 300 297 293 298 301 307 306 307 303 298 304 302 300 305 299 298 297 297 290 286 279 274 281 281 281 260 250
303 314 319 322 325 325 324 322 321 320 319 316 311 308 301 294 296 297 296 295 296 307 305 305 307 302 301 302 301 300 301 298 292 291 289 288 286 286 284 282 286 258 246
298 308 312 315 319 322 321 320 319 318 317 313 312 309 306 299 299 298 300 305 302 303 304 303 305 303 301 299 300 302 299 298 293 289 287 288 286 289 281 285 280 260 243
294 303 311 316 320 319 319 320 317 317 317 315 313 310 307 304 299 295 292 292 291 302 301 309 305 307 304 304 303 304 300 297 294 290 289 287 285 287 286 280 275 258 240
288 304 312 317 318 318 320 319 317 317 315 314 311 307 307 304 299 295 290 287 284 285 294 305 305 305 308 307 305 306 301 301 294 292 291 289 292 291 284 273 272 249 236
293 309 316 317 317 318 319 317 317 317 309 310 311 307 302 306 298 294 291 287 285 284 286 297 300 305 306 307 308 309 309 305 298 299 300 296 290 290 276 265 258 243 238
303 315 316 315 317 318 318 317 315 312 309 307 306 304 302 304 296 292 288 286 284 285 282 290 297 303 305 308 306 307 314 312 310 315 309 299 297 281 264 263 250 242 243
313 319 318 318 321 319 318 317 313 310 306 305 303 307 304 300 293 291 289 287 287 284 285 288 294 300 299 311 311 314 318 307 315 313 322 303 309 303 285 270 253 237 239
320 325 325 324 321 319 318 317 313 308 305 303 310 307 302 297 293 290 288 286 287 284 292 295 295 302 308 316 319 317 319 321 324 326 320 305 308 299 285 275 251 227 231
334 333 327 326 323 321 321 315 312 307 303 308 306 305 305 301 299 303 304 303 304 301 297 295 302 305 309 318 318 317 314 319 322 315 313 317 315 318 310 285 248 225 218
344 338 336 329 326 325 318 316 312 312 311 311 309 310 315 309 305 303 304 305 301 304 305 298 300 307 309 307 308 309 314 320 322 327 324 316 321 310 331 304 261 247 216
348 346 338 333 328 325 321 318 315 312 308 310 312 309 308 306 306 308 305 298 297 297 298 302 300 296 296 299 303 304 310 312 310 309 315 315 310 307 317 309 293 247 211
354 344 339 337 328 328 328 325 319 315 314 317 318 316 311 310 314 304 297 289 287 288 297 300 294 297 301 312 315 314 311 307 312 318 308 293 302 298 301 300 296 207 199
350 348 341 334 336 336 332 328 324 323 316 317 317 315 310 304 304 305 305 301 302 300 297 300 302 309 317 315 320 322 324 321 322 322 305 324 292 306 296 341 341 212 199
351 345 340 341 342 339 340 331 328 327 315 311 309 306 309 315 312 311 308 302 289 296 300 310 312 313 317 326 329 330 325 314 326 320 315 329 307 316 319 343 351 180 202